[[{"header":{"parameterUnit":"m.s-1","parameterCategory":2,"la1":30.2991,"la2":30.254,"lo1":-89.0895,"lo2":-89.0444,"dy":0.0017,"dx":0.0017,"nx":28,"ny":28,"refTime":"2024-08-11T15:00:00:Z","depth":"0","parameterNumber":2,"parameterNumberName":"U-component_of_CURRENTS"},"data":[0,0,0,0,0,0,0,0,0,0,0,0,0,0,0,0,0,0,0,0,0,0,0,0,0,0,0,0,0,0,0,0,0,0,0,0,0,0,0,0,0,0,0,0,0,0,0,0,0,0,0,0,0,0,0,0,0,0,0.1617,0.1616,0,0.1565,0.1564,0.1564,0.1499,0.1498,0.1497,0.1496,0.1439,0.1439,0.1438,0,0,0,0,0,0,0,0,0,0,0,0,0,0.164,0.164,0.1617,0.1616,0.1615,0.1565,0.1564,0.1563,0.15,0.1498,0.1497,0.1496,0.1439,0.1439,0.1438,0,0,0,0,0,0,0,0,0,0,0,0,0,0.1614,0.164,0.1617,0.1577,0.1572,0.1565,0.1564,0.1563,0.15,0.1498,0.1497,0.1495,0.144,0.1439,0.1438,0.1467,0,0,0.1436,0.1436,0,0,0,0,0,0,0,0,0.1616,0.1614,0.1583,0.1579,0.1575,0.1536,0.1551,0.153,0.15,0.1528,0.1496,0.1494,0.1472,0.1468,0.1464,0.1464,0.1462,0.1436,0.1435,0.1435,0.1435,0,0,0,0,0,0,0,0.1618,0.1615,0.1597,0.1583,0.1577,0.1554,0.1549,0.1547,0.1511,0.1526,0.1521,0.1514,0.1469,0.1465,0.1462,0.1461,0.1436,0.1435,0.1435,0.1435,0.1502,0.1504,0,0,0,0,0,0,0.1625,0.1617,0.1599,0.1595,0.159,0.1555,0.1549,0.1551,0.1511,0.1503,0.1515,0.1511,0.1467,0.1463,0.146,0.1516,0.1435,0.1434,0.1434,0.15,0.1502,0.1505,0,0,0,0,0,0,0.1626,0.1625,0.1601,0.1604,0.1599,0.1556,0.1559,0.1551,0.1544,0.1503,0.1494,0.1517,0.1465,0.1461,0.1463,0.1512,0.1434,0.1433,0.1497,0.15,0.1504,0.1612,0,0,0,0,0,0,0.1627,0.1626,0.1645,0.1605,0.1599,0.162,0.156,0.1551,0.1542,0.1536,0.1502,0.1494,0.1463,0.1464,0.1462,0.1509,0.1433,0.1494,0.1499,0.1503,0.1606,0.1619,0.163,0,0,0,0,0,0.1629,0.1674,0.1646,0.1644,0.1622,0.1622,0.1618,0.1581,0.1544,0.1565,0.1527,0.1495,0.149,0.1465,0.1462,0.1511,0.1492,0.1497,0.1502,0.1601,0.1617,0.163,0,0,0,0,0,0,0.17,0.167,0.1639,0.1673,0.1653,0.1611,0.1629,0.1592,0.1579,0.1571,0.1516,0.1509,0.1545,0.1509,0.1483,0.1544,0.149,0.1495,0.1566,0.1581,0.1593,0.1635,0.1432,0,0,0,0,0,0.1722,0.175,0.1702,0.1735,0.1722,0.1673,0.167,0.1644,0.1617,0.1608,0.1582,0.1561,0.1566,0.1554,0.1563,0.158,0.1603,0.1612,0.1624,0.1634,0.1669,0.1753,0.1776,0.1521,0.1521,0.1521,0,0,0.1757,0.1749,0.1761,0.1753,0.1728,0.173,0.1668,0.1677,0.1685,0.1608,0.1627,0.1617,0.1587,0.162,0.1631,0.1587,0.1718,0.1641,0.165,0.1679,0.1761,0.1786,0.1808,0.1525,0.1524,0.1523,0,0,0.1828,0.1829,0.1854,0.1848,0.1826,0.1799,0.1802,0.1766,0.1758,0.1767,0.1729,0.175,0.1727,0.1734,0.1726,0.1811,0.1798,0.1802,0.1876,0.1956,0.1979,0.1999,0.2055,0.2079,0.1785,0.1785,0.1785,0,0.187,0.1881,0.1866,0.1882,0.1876,0.1829,0.1836,0.184,0.1817,0.182,0.179,0.1813,0.1794,0.1839,0.1869,0.1845,0.1873,0.1818,0.1975,0.1995,0.2014,0.2066,0.2092,0.1791,0.179,0.179,0.1789,0,0.1926,0.1944,0.1965,0.196,0.1966,0.1979,0.1956,0.1975,0.195,0.1939,0.199,0.198,0.1985,0.199,0.195,0.2066,0.2039,0.2,0.1941,0.2047,0.2094,0.2119,0.1799,0.1797,0.1796,0.1794,0,0,0.1982,0.1997,0.1999,0.199,0.2001,0.1997,0.2044,0.2049,0.2058,0.2087,0.2114,0.2162,0.2158,0.2154,0.2128,0.2192,0.2344,0.2151,0.2152,0.2213,0.2516,0.2461,0.2481,0.2328,0.2333,0.2337,0.2494,0,0.2012,0.2038,0.2047,0.207,0.2065,0.2066,0.21,0.2118,0.2124,0.2155,0.2193,0.2215,0.2216,0.2209,0.2297,0.2314,0.2415,0.2305,0.24,0.2403,0.2348,0.2511,0.245,0.2583,0.2518,0.2522,0.2525,0,0.2034,0.2046,0.2063,0.2078,0.2075,0.2094,0.2112,0.2139,0.2198,0.2207,0.2277,0.2289,0.2394,0.237,0.2544,0.2468,0.2535,0.2564,0.2569,0.2505,0.2396,0.2468,0.2629,0.2502,0.2562,0.2559,0.2556,0,0.2018,0.2051,0.2055,0.2064,0.2085,0.2097,0.2107,0.215,0.2162,0.224,0.2255,0.2385,0.2415,0.2557,0.2624,0.2596,0.28,0.2755,0.2792,0.2786,0.275,0.2733,0.281,0.2948,0.2948,0.2948,0.2947,0,0.2028,0.203,0.2042,0.2042,0.2042,0.2071,0.2084,0.2112,0.2165,0.2188,0.2277,0.232,0.2467,0.2573,0.2673,0.2805,0.2854,0.2869,0.2853,0.2782,0.2767,0.2661,0.2597,0.2953,0.2952,0.2951,0.295,0,0.2,0.2016,0.2013,0.2029,0.2029,0.2022,0.2042,0.2055,0.211,0.2149,0.2174,0.229,0.2429,0.2567,0.2757,0.283,0.2884,0.3004,0.2896,0.2866,0.2773,0.2717,0.2712,0.2644,0.3103,0.3103,0.3103,0,0.1988,0.1983,0.198,0.1966,0.1968,0.1968,0.1966,0.2015,0.203,0.2122,0.2136,0.2273,0.2368,0.2618,0.2785,0.2986,0.2876,0.3018,0.2981,0.2815,0.2743,0.259,0.2522,0.2976,0.2975,0.2974,0.2974,0,0.1951,0.1945,0.1933,0.1907,0.1893,0.1885,0.189,0.1896,0.1962,0.2007,0.2077,0.2162,0.2401,0.2563,0.2795,0.2919,0.2843,0.3005,0.2887,0.2724,0.2516,0.2423,0.2792,0.2966,0.2967,0.2968,0.2968,0.2968,0.1907,0.1884,0.1862,0.1828,0.1814,0.1793,0.1775,0.1809,0.1833,0.1892,0.1994,0.2107,0.2341,0.267,0.2759,0.2842,0.281,0.2806,0.2779,0.2657,0.2521,0.2861,0.2965,0.2965,0.2966,0.2966,0.2967,0,0.1834,0.181,0.1783,0.1738,0.1698,0.1715,0.171,0.1697,0.1715,0.1819,0.1891,0.2106,0.2284,0.248,0.2671,0.2616,0.254,0.2537,0.2327,0.2295,0.2669,0.2588,0.2548,0.2548,0.2548,0.2548,0.2549,0.2549,0.1791,0.1733,0.1715,0.1625,0.1599,0.1545,0.1534,0.154,0.1598,0.169,0.1801,0.1918,0.2148,0.2306,0.2342,0.2335,0.2141,0.2066,0.2018,0.228,0.2301,0.2322,0.223,0.2116,0.2116,0.1569,0.1565,0.1561]},{"header":{"parameterUnit":"m.s-1","parameterCategory":2,"la1":30.2991,"la2":30.254,"lo1":-89.0895,"lo2":-89.0444,"dy":0.0017,"dx":0.0017,"nx":28,"ny":28,"refTime":"2024-08-11T15:00:00:Z","depth":"0","parameterNumber":3,"parameterNumberName":"V-component_of_CURRENTS"},"data":[0,0,0,0,0,0,0,0,0,0,0,0,0,0,0,0,0,0,0,0,0,0,0,0,0,0,0,0,0,0,0,0,0,0,0,0,0,0,0,0,0,0,0,0,0,0,0,0,0,0,0,0,0,0,0,0,0,0,-0.0206,-0.0207,0,-0.0282,-0.0283,-0.0283,-0.0388,-0.039,-0.0392,-0.0394,-0.0477,-0.0478,-0.0478,0,0,0,0,0,0,0,0,0,0,0,0,0,-0.0194,-0.0193,-0.0206,-0.0207,-0.0208,-0.0282,-0.0283,-0.0283,-0.0387,-0.039,-0.0392,-0.0394,-0.0477,-0.0477,-0.0478,0,0,0,0,0,0,0,0,0,0,0,0,0,-0.0224,-0.0193,-0.0205,-0.0271,-0.0278,-0.0282,-0.0283,-0.0284,-0.0387,-0.039,-0.0393,-0.0396,-0.0477,-0.0477,-0.0478,-0.042,0,0,-0.0479,-0.048,0,0,0,0,0,0,0,0,-0.0222,-0.0224,-0.026,-0.0267,-0.0274,-0.0331,-0.031,-0.0331,-0.0386,-0.0342,-0.0394,-0.0397,-0.0429,-0.0433,-0.0436,-0.0424,-0.0427,-0.0479,-0.048,-0.048,-0.048,0,0,0,0,0,0,0,-0.022,-0.0222,-0.0233,-0.0261,-0.027,-0.0312,-0.0319,-0.0314,-0.0365,-0.0346,-0.0355,-0.0367,-0.0433,-0.0436,-0.0439,-0.0428,-0.0479,-0.048,-0.048,-0.048,-0.0326,-0.0322,0,0,0,0,0,0,-0.0211,-0.0219,-0.023,-0.0235,-0.0259,-0.031,-0.0318,-0.0307,-0.0365,-0.0378,-0.0364,-0.0372,-0.0433,-0.0438,-0.0443,-0.0322,-0.048,-0.048,-0.0481,-0.033,-0.0325,-0.032,0,0,0,0,0,0,-0.021,-0.021,-0.0227,-0.0233,-0.0239,-0.0307,-0.0295,-0.0307,-0.0307,-0.038,-0.0393,-0.0352,-0.0436,-0.0442,-0.0421,-0.0329,-0.0481,-0.0481,-0.0335,-0.0328,-0.0322,-0.0117,0,0,0,0,0,0,-0.0208,-0.0208,-0.0182,-0.0231,-0.0238,-0.0186,-0.0292,-0.0307,-0.0312,-0.0322,-0.0372,-0.0384,-0.0439,-0.042,-0.0422,-0.0332,-0.0481,-0.0341,-0.0332,-0.0324,-0.0129,-0.0104,-0.0082,0,0,0,0,0,-0.0207,-0.0128,-0.0179,-0.0181,-0.0204,-0.0183,-0.0186,-0.0247,-0.0308,-0.0266,-0.0322,-0.0383,-0.0368,-0.0417,-0.042,-0.0329,-0.0345,-0.0335,-0.0325,-0.0139,-0.0109,-0.0083,0,0,0,0,0,0,-0.0087,-0.0134,-0.0191,-0.0127,-0.0148,-0.0201,-0.0169,-0.0223,-0.0233,-0.0244,-0.0337,-0.0348,-0.029,-0.0332,-0.0384,-0.0257,-0.036,-0.0351,-0.0218,-0.019,-0.0167,-0.0141,-0.0482,0,0,0,0,0,-0.0057,-0.0017,-0.008,-0.0023,-0.0037,-0.0107,-0.0107,-0.014,-0.0169,-0.0178,-0.0222,-0.0251,-0.0246,-0.0242,-0.0244,-0.0176,-0.0222,-0.0114,-0.009,-0.0071,-0.0048,-0.0039,-0.0014,-0.0287,-0.0288,-0.0288,0,0,0.0009,-0.0014,0.001,0.0003,-0.0029,0.0005,-0.0111,-0.0078,-0.004,-0.018,-0.0129,-0.0169,-0.0211,-0.0139,-0.0115,-0.0167,-0.0013,-0.0058,-0.0041,-0.003,-0.0026,-0.0,0.0023,-0.0281,-0.0282,-0.0283,0,0,0.0159,0.0131,0.0196,0.0188,0.016,0.0125,0.0139,0.0099,0.0087,0.0129,0.0041,0.0059,0.0056,0.0054,0.0046,0.0206,0.0108,0.0207,0.0349,0.0359,0.0381,0.0399,0.0381,0.0396,0.0221,0.0221,0.0222,0,0.0235,0.0281,0.0228,0.0277,0.0272,0.0184,0.0241,0.0248,0.0229,0.0227,0.0179,0.0189,0.016,0.0232,0.0286,0.0264,0.0226,0.024,0.0388,0.0405,0.0421,0.0397,0.0411,0.0232,0.0231,0.023,0.0229,0,0.0403,0.0433,0.0479,0.049,0.0506,0.055,0.0516,0.0544,0.0501,0.0478,0.0529,0.0491,0.0482,0.0502,0.0441,0.0551,0.0475,0.0411,0.0311,0.0461,0.0426,0.0438,0.0248,0.0244,0.0241,0.0238,0,0,0.0557,0.0585,0.0591,0.0587,0.0602,0.0617,0.0708,0.0724,0.0742,0.0765,0.0795,0.0842,0.0782,0.0773,0.0714,0.0741,0.0827,0.0635,0.063,0.0609,0.0824,0.0752,0.0755,0.0772,0.0776,0.0778,0.0756,0,0.0673,0.0767,0.0771,0.0854,0.0868,0.0837,0.0906,0.0928,0.0916,0.094,0.0933,0.0942,0.0897,0.0876,0.0918,0.0823,0.0865,0.0838,0.069,0.0686,0.0597,0.077,0.077,0.0749,0.0766,0.0768,0.0769,0,0.079,0.0822,0.091,0.0934,0.0941,0.1,0.102,0.1079,0.1115,0.1106,0.1142,0.1094,0.1149,0.1071,0.1067,0.1039,0.0974,0.0915,0.0911,0.078,0.0636,0.0603,0.0767,0.0659,0.0784,0.0783,0.0782,0,0.0808,0.09,0.0948,0.0963,0.1013,0.1049,0.1078,0.1118,0.1139,0.1193,0.1196,0.1245,0.1225,0.1207,0.1103,0.1077,0.1064,0.0997,0.089,0.0881,0.0824,0.0805,0.086,0.1033,0.1033,0.1033,0.1033,0,0.0869,0.0903,0.095,0.0966,0.1019,0.1059,0.1113,0.1149,0.1201,0.1228,0.1263,0.1279,0.1254,0.1226,0.1156,0.1061,0.1109,0.096,0.0897,0.0896,0.0884,0.0734,0.0661,0.1032,0.1032,0.1032,0.1032,0,0.0851,0.0893,0.0933,0.0995,0.1014,0.104,0.1102,0.1139,0.1195,0.1235,0.1251,0.1293,0.1268,0.1227,0.1162,0.1091,0.0955,0.0968,0.0958,0.0897,0.0694,0.0632,0.0606,0.0563,0.087,0.0868,0.0867,0,0.0842,0.0861,0.0918,0.0934,0.0957,0.1004,0.1038,0.1114,0.1151,0.1228,0.1246,0.1254,0.126,0.1167,0.1073,0.0979,0.089,0.0878,0.0859,0.0732,0.0617,0.058,0.0544,0.0862,0.0861,0.086,0.0859,0,0.0806,0.0822,0.0848,0.0882,0.0915,0.0967,0.1025,0.1052,0.1143,0.1184,0.1228,0.1246,0.1192,0.1118,0.0999,0.0925,0.0804,0.0851,0.0746,0.0664,0.0606,0.0515,0.0794,0.085,0.0851,0.0852,0.0852,0.0852,0.0754,0.076,0.0792,0.0824,0.0871,0.0931,0.0959,0.1028,0.1087,0.1162,0.1192,0.1235,0.1172,0.1031,0.0897,0.069,0.0702,0.0616,0.0564,0.0548,0.0492,0.0741,0.07,0.07,0.07,0.07,0.07,0,0.0682,0.0707,0.0735,0.0784,0.0826,0.0873,0.0951,0.0983,0.1037,0.1131,0.1175,0.1202,0.1057,0.0918,0.0673,0.0463,0.0417,0.0348,0.0325,0.0311,0.0562,0.0546,0.0438,0.0438,0.0438,0.0438,0.0438,0.0438,0.0641,0.0644,0.0675,0.0725,0.0771,0.0817,0.0857,0.0912,0.0987,0.1081,0.1149,0.1223,0.121,0.0698,0.0331,0.0235,0.0098,0.0049,-0.0022,0.0156,0.0178,0.0199,0.0171,-0.0015,-0.0015,-0.0225,-0.0227,-0.0229]}],[{"header":{"parameterUnit":"m.s-1","parameterCategory":2,"la1":30.2991,"la2":30.254,"lo1":-89.0895,"lo2":-89.0444,"dy":0.0017,"dx":0.0017,"nx":28,"ny":28,"refTime":"2024-08-11T15:00:00:Z","depth":"2","parameterNumber":2,"parameterNumberName":"U-component_of_CURRENTS"},"data":[0,0,0,0,0,0,0,0,0,0,0,0,0,0,0,0,0,0,0,0,0,0,0,0,0,0,0,0,0,0,0,0,0,0,0,0,0,0,0,0,0,0,0,0,0,0,0,0,0,0,0,0,0,0,0,0,0,0,0.1377,0.1377,0,0.1392,0.1392,0.1391,0.137,0.1369,0.1369,0.1368,0.1342,0.1342,0.1341,0,0,0,0,0,0,0,0,0,0,0,0,0,0.1312,0.1314,0.1377,0.1377,0.1378,0.1392,0.1392,0.1391,0.137,0.1369,0.1369,0.1368,0.1342,0.1342,0.1341,0,0,0,0,0,0,0,0,0,0,0,0,0,0.1332,0.1314,0.1377,0.1371,0.1371,0.1392,0.1392,0.1391,0.137,0.1369,0.1368,0.1368,0.1342,0.1342,0.1341,0.1352,0,0,0.134,0.134,0,0,0,0,0,0,0,0,0.1331,0.1334,0.1371,0.1372,0.1371,0.1381,0.1359,0.1377,0.137,0.1367,0.1368,0.1367,0.1354,0.1352,0.1352,0.1351,0.135,0.134,0.134,0.1339,0.1339,0,0,0,0,0,0,0,0.133,0.1333,0.1379,0.1372,0.1372,0.1362,0.1364,0.1362,0.1361,0.1367,0.1366,0.1373,0.1353,0.1353,0.1352,0.135,0.134,0.134,0.1339,0.1339,0.1419,0.1422,0,0,0,0,0,0,0.1337,0.1332,0.1379,0.138,0.1353,0.1364,0.1366,0.1376,0.1361,0.136,0.1374,0.1372,0.1354,0.1352,0.1351,0.1416,0.1339,0.1339,0.1339,0.1417,0.142,0.1423,0,0,0,0,0,0,0.1335,0.1341,0.1378,0.1359,0.1363,0.1367,0.1377,0.1377,0.139,0.1368,0.1365,0.139,0.1353,0.1351,0.1374,0.1412,0.1339,0.1339,0.1414,0.1418,0.1421,0.1512,0,0,0,0,0,0,0.1333,0.134,0.1361,0.1359,0.1365,0.1418,0.1378,0.1378,0.1396,0.1394,0.138,0.1376,0.1353,0.1375,0.1373,0.141,0.1338,0.1411,0.1416,0.142,0.1506,0.1518,0.1528,0,0,0,0,0,0.1331,0.1383,0.1362,0.1369,0.139,0.1421,0.1423,0.1419,0.1398,0.1423,0.1409,0.1377,0.1402,0.1376,0.1374,0.1412,0.1409,0.1415,0.142,0.1501,0.1516,0.1528,0,0,0,0,0,0,0.1387,0.1386,0.1363,0.1416,0.1422,0.1419,0.1455,0.1433,0.1442,0.1441,0.1403,0.14,0.1439,0.1417,0.1389,0.1451,0.1402,0.1408,0.1465,0.1479,0.149,0.1479,0.1338,0,0,0,0,0,0.1401,0.1433,0.1422,0.1469,0.1474,0.1459,0.1473,0.1464,0.1466,0.1469,0.1454,0.1448,0.1459,0.1461,0.1468,0.1495,0.1478,0.1521,0.1533,0.1542,0.1535,0.1557,0.157,0.144,0.144,0.144,0,0,0.1442,0.1444,0.1465,0.1482,0.1486,0.1489,0.1467,0.1503,0.1506,0.1465,0.1485,0.1492,0.1478,0.1516,0.153,0.15,0.1575,0.1549,0.1557,0.1544,0.1564,0.1577,0.1587,0.1444,0.1443,0.1443,0,0,0.1498,0.1533,0.1543,0.1549,0.1555,0.1553,0.1564,0.1562,0.1569,0.1589,0.1566,0.1597,0.16,0.1603,0.1602,0.1681,0.164,0.1688,0.1727,0.1751,0.1761,0.177,0.1777,0.1785,0.1686,0.1687,0.1687,0,0.1539,0.1529,0.156,0.1555,0.1555,0.1577,0.1564,0.1595,0.16,0.1602,0.1612,0.1637,0.1641,0.1668,0.1705,0.1705,0.1702,0.1674,0.1764,0.1772,0.1779,0.1784,0.1792,0.1692,0.1691,0.169,0.169,0,0.1549,0.1554,0.1579,0.1561,0.1584,0.1601,0.162,0.1652,0.1666,0.1668,0.1718,0.1744,0.1747,0.1776,0.1765,0.1822,0.1798,0.1781,0.1724,0.1798,0.1799,0.1805,0.1699,0.1697,0.1695,0.1694,0,0,0.1571,0.1575,0.1571,0.1551,0.1575,0.1592,0.1634,0.1649,0.1662,0.1722,0.1729,0.1805,0.1823,0.1825,0.1836,0.1872,0.1944,0.1854,0.1853,0.1852,0.1986,0.1903,0.1901,0.1941,0.1942,0.1943,0.1969,0,0.154,0.152,0.1528,0.1524,0.1513,0.1554,0.1586,0.1624,0.1666,0.1701,0.1768,0.1802,0.1842,0.1858,0.1908,0.1922,0.1964,0.1937,0.1922,0.1921,0.183,0.1907,0.1679,0.1677,0.1976,0.1977,0.1977,0,0.1482,0.1482,0.1459,0.147,0.147,0.1489,0.1528,0.156,0.1636,0.1669,0.1735,0.1779,0.1858,0.1883,0.197,0.1949,0.198,0.2003,0.2004,0.1892,0.185,0.1651,0.1677,0.1988,0.1987,0.1986,0.1986,0,0.1421,0.1415,0.1396,0.1401,0.1439,0.1449,0.148,0.1545,0.1578,0.1657,0.1688,0.1776,0.1828,0.1894,0.1971,0.1969,0.2049,0.204,0.1997,0.1991,0.1774,0.1745,0.2105,0.2105,0.2105,0.2105,0.2105,0,0.1352,0.1337,0.1374,0.1371,0.1381,0.1413,0.1439,0.1487,0.1549,0.1599,0.1678,0.1733,0.1839,0.1902,0.1962,0.1999,0.2045,0.2012,0.1998,0.1801,0.1776,0.2019,0.2009,0.2106,0.2105,0.2105,0.2105,0,0.1294,0.1299,0.13,0.134,0.1354,0.1375,0.1433,0.1464,0.1516,0.1583,0.1614,0.171,0.1795,0.1879,0.1971,0.1973,0.2017,0.2019,0.1777,0.1734,0.1945,0.1939,0.1965,0.1962,0.196,0.1958,0.1957,0,0.1265,0.1256,0.13,0.1324,0.1349,0.1383,0.1417,0.146,0.1498,0.1579,0.1614,0.1698,0.1762,0.1837,0.1812,0.1849,0.199,0.1695,0.1656,0.195,0.1934,0.1932,0.1929,0.1411,0.1405,0.14,0.1396,0,0.1247,0.1267,0.1289,0.133,0.1365,0.1391,0.1437,0.1445,0.1508,0.1541,0.1595,0.1634,0.1657,0.1576,0.1596,0.1595,0.1663,0.1598,0.1964,0.1483,0.143,0.1413,0.1428,0.1353,0.1357,0.1361,0.1363,0.1365,0.1266,0.1281,0.1315,0.1354,0.1384,0.1398,0.1399,0.1428,0.1443,0.1432,0.1497,0.1455,0.1424,0.1312,0.1311,0.1283,0.1392,0.1355,0.1369,0.1388,0.1321,0.1267,0.1147,0.115,0.1152,0.1154,0.1156,0,0.1292,0.1314,0.1343,0.1366,0.1375,0.1406,0.1417,0.138,0.1365,0.1313,0.1292,0.108,0.1011,0.1054,0.0902,0.0898,0.0881,0.0924,0.0888,0.0926,0.0961,0.0874,0.0581,0.058,0.058,0.058,0,0,0.1317,0.1337,0.1337,0.1348,0.137,0.1355,0.135,0.1284,0.1219,0.1033,0.0925,0.0888,0.094,0.0731,0.0694,0.0641,0.0796,0.061,0.1044,0.1033,0.1069,0.1151,0.1052,0,0,0,0,0]},{"header":{"parameterUnit":"m.s-1","parameterCategory":2,"la1":30.2991,"la2":30.254,"lo1":-89.0895,"lo2":-89.0444,"dy":0.0017,"dx":0.0017,"nx":28,"ny":28,"refTime":"2024-08-11T15:00:00:Z","depth":"2","parameterNumber":3,"parameterNumberName":"V-component_of_CURRENTS"},"data":[0,0,0,0,0,0,0,0,0,0,0,0,0,0,0,0,0,0,0,0,0,0,0,0,0,0,0,0,0,0,0,0,0,0,0,0,0,0,0,0,0,0,0,0,0,0,0,0,0,0,0,0,0,0,0,0,0,0,-0.0054,-0.0055,0,-0.0119,-0.012,-0.0121,-0.0163,-0.0163,-0.0163,-0.0163,-0.0296,-0.0299,-0.0302,0,0,0,0,0,0,0,0,0,0,0,0,0,-0.002,-0.002,-0.0054,-0.0055,-0.0056,-0.0119,-0.012,-0.0121,-0.0163,-0.0163,-0.0163,-0.0163,-0.0295,-0.0298,-0.0302,0,0,0,0,0,0,0,0,0,0,0,0,0,-0.0055,-0.002,-0.0054,-0.0084,-0.0088,-0.0119,-0.012,-0.0121,-0.0162,-0.0163,-0.0163,-0.0164,-0.0293,-0.0298,-0.0303,-0.0326,0,0,-0.0318,-0.032,0,0,0,0,0,0,0,0,-0.0053,-0.0056,-0.0079,-0.0082,-0.0086,-0.0133,-0.0157,-0.0193,-0.0162,-0.0134,-0.0163,-0.0164,-0.0247,-0.0256,-0.0267,-0.0332,-0.0338,-0.0319,-0.0322,-0.0324,-0.0325,0,0,0,0,0,0,0,-0.005,-0.0054,-0.008,-0.008,-0.0084,-0.0113,-0.0118,-0.0164,-0.0189,-0.0137,-0.014,-0.0147,-0.025,-0.0262,-0.027,-0.034,-0.0318,-0.0323,-0.0326,-0.0328,-0.0415,-0.0414,0,0,0,0,0,0,-0.0039,-0.0051,-0.0078,-0.0082,-0.007,-0.0113,-0.0119,-0.0118,-0.0187,-0.0198,-0.0146,-0.0148,-0.0253,-0.0264,-0.0275,-0.0278,-0.0324,-0.0328,-0.0331,-0.0415,-0.0415,-0.0414,0,0,0,0,0,0,-0.0037,-0.004,-0.0075,-0.0069,-0.0075,-0.0113,-0.0112,-0.0119,-0.0139,-0.0194,-0.0206,-0.016,-0.0254,-0.0268,-0.031,-0.0285,-0.033,-0.0335,-0.0416,-0.0415,-0.0414,-0.0303,0,0,0,0,0,0,-0.0036,-0.0039,-0.004,-0.0067,-0.0075,-0.0093,-0.0112,-0.012,-0.0142,-0.0146,-0.021,-0.0222,-0.0255,-0.0302,-0.0315,-0.0292,-0.0339,-0.0417,-0.0416,-0.0415,-0.0307,-0.0298,-0.029,0,0,0,0,0,-0.0034,-0.0034,-0.004,-0.0044,-0.0073,-0.0093,-0.0099,-0.0128,-0.0142,-0.0148,-0.0185,-0.022,-0.0303,-0.0306,-0.0321,-0.0299,-0.0418,-0.0416,-0.0415,-0.0311,-0.03,-0.0291,0,0,0,0,0,0,-0.0023,-0.0039,-0.0046,-0.0051,-0.0069,-0.01,-0.011,-0.013,-0.0163,-0.0166,-0.0221,-0.0235,-0.026,-0.0301,-0.0303,-0.0321,-0.0363,-0.0364,-0.0279,-0.0269,-0.0261,-0.0257,-0.0343,0,0,0,0,0,-0.0019,-0.0019,-0.0041,-0.0044,-0.0051,-0.0081,-0.0095,-0.0109,-0.014,-0.0155,-0.0193,-0.0233,-0.0264,-0.0284,-0.0322,-0.034,-0.039,-0.0334,-0.0325,-0.0318,-0.0325,-0.0387,-0.0385,-0.0409,-0.0409,-0.0409,0,0,-0.0013,-0.0024,-0.0024,-0.0042,-0.0057,-0.0069,-0.009,-0.0103,-0.0107,-0.0165,-0.0183,-0.0212,-0.0265,-0.0274,-0.0288,-0.0306,-0.0331,-0.0316,-0.0309,-0.032,-0.0386,-0.0383,-0.0381,-0.0408,-0.0408,-0.0408,0,0,-0.0019,-0.0012,-0.0026,-0.0033,-0.0052,-0.0059,-0.0063,-0.0086,-0.0091,-0.0105,-0.0142,-0.0156,-0.0209,-0.0228,-0.0249,-0.0223,-0.0288,-0.0231,-0.0181,-0.024,-0.0239,-0.0238,-0.0269,-0.0273,-0.0221,-0.0221,-0.0221,0,-0.0015,-0.0036,-0.0033,-0.0049,-0.0054,-0.0055,-0.007,-0.0067,-0.0097,-0.01,-0.0099,-0.0153,-0.0184,-0.0205,-0.0176,-0.0203,-0.0244,-0.021,-0.0228,-0.0229,-0.0231,-0.0264,-0.0269,-0.0216,-0.0216,-0.0217,-0.0217,0,-0.0049,-0.0052,-0.0056,-0.0069,-0.0068,-0.0074,-0.0065,-0.0057,-0.005,-0.0054,-0.0061,-0.0085,-0.0118,-0.0113,-0.0131,-0.0147,-0.0174,-0.0212,-0.0251,-0.0222,-0.0258,-0.0265,-0.0208,-0.021,-0.0211,-0.0213,0,0,-0.0084,-0.008,-0.0086,-0.0076,-0.0076,-0.0069,-0.0058,-0.0054,-0.0042,-0.0036,-0.0038,-0.004,-0.004,-0.0064,-0.0082,-0.011,-0.0123,-0.0149,-0.0155,-0.0173,-0.024,-0.0161,-0.0162,-0.017,-0.0171,-0.0172,-0.0249,0,-0.0121,-0.0131,-0.0131,-0.0121,-0.0117,-0.0093,-0.0075,-0.0056,-0.0039,-0.0029,-0.0028,-0.0031,-0.0025,-0.0023,-0.0048,-0.0118,-0.0144,-0.0098,-0.0273,-0.0278,-0.0206,-0.0168,-0.019,-0.0252,-0.0257,-0.0258,-0.0259,0,-0.0179,-0.0169,-0.0164,-0.012,-0.0117,-0.01,-0.0057,-0.0044,-0.0022,-0.0009,-0.0004,-0.0011,-0.0023,-0.0029,-0.012,-0.0094,-0.0153,-0.0202,-0.0208,-0.0184,-0.0213,-0.0291,-0.0267,-0.0272,-0.0271,-0.027,-0.027,0,-0.0197,-0.0193,-0.0175,-0.0164,-0.0118,-0.0096,-0.0068,-0.0036,-0.0005,0.0005,0.0024,-0.0008,-0.0007,-0.0094,-0.0136,-0.015,-0.0245,-0.0293,-0.0279,-0.0275,-0.0353,-0.0352,-0.0375,-0.0375,-0.0375,-0.0375,-0.0374,0,-0.0229,-0.021,-0.0169,-0.0149,-0.0101,-0.0081,-0.003,-0.0004,0.0023,0.0062,0.0044,0.0064,-0.0025,-0.0068,-0.0145,-0.0201,-0.0255,-0.0262,-0.0289,-0.0308,-0.0302,-0.0379,-0.0379,-0.0378,-0.0377,-0.0376,-0.0376,0,-0.0214,-0.0211,-0.0167,-0.0117,-0.0096,-0.0046,0.0024,0.0061,0.0074,0.0118,0.0127,0.0111,0.0067,-0.0007,-0.0138,-0.0187,-0.0274,-0.0287,-0.027,-0.029,-0.0272,-0.0265,-0.0312,-0.031,-0.0308,-0.0306,-0.0305,0,-0.0192,-0.0174,-0.0113,-0.0075,-0.0038,0.0026,0.0075,0.0102,0.0135,0.0159,0.0179,0.016,0.0186,0.0061,-0.0067,-0.0181,-0.0208,-0.0262,-0.0284,-0.0244,-0.0266,-0.0262,-0.0258,-0.0352,-0.0351,-0.0351,-0.035,0,-0.0125,-0.0108,-0.0063,0.0003,0.0061,0.0122,0.0181,0.0208,0.0233,0.0268,0.0303,0.0323,0.0229,0.0123,0.0001,-0.0089,-0.0242,-0.0247,-0.0255,-0.0328,-0.0279,-0.0301,-0.0297,-0.0344,-0.0345,-0.0346,-0.0346,-0.0346,-0.0052,-0.0008,0.0035,0.0103,0.0159,0.0213,0.026,0.0304,0.0362,0.0421,0.0411,0.0436,0.0279,0.0133,0.0008,-0.0145,-0.0166,-0.0247,-0.0253,-0.0258,-0.0212,-0.0158,-0.0193,-0.0193,-0.0192,-0.0192,-0.0192,0,0.0041,0.0072,0.0133,0.0198,0.0258,0.0272,0.0331,0.0369,0.0438,0.0502,0.0561,0.0425,0.0326,0.0166,-0.0064,-0.0177,-0.0225,-0.02,-0.0271,-0.0277,-0.0282,-0.024,-0.0227,-0.0227,-0.0227,-0.0226,0,0,0.0091,0.0154,0.0169,0.027,0.0318,0.0384,0.0415,0.0475,0.0516,0.0579,0.0586,0.0597,0.036,0.0192,0.0011,-0.0104,-0.0147,-0.0115,-0.0084,-0.0154,-0.0156,-0.0317,-0.0258,0,0,0,0,0]}],[{"header":{"parameterUnit":"m.s-1","parameterCategory":2,"la1":30.2991,"la2":30.254,"lo1":-89.0895,"lo2":-89.0444,"dy":0.0017,"dx":0.0017,"nx":28,"ny":28,"refTime":"2024-08-11T15:00:00:Z","depth":"4","parameterNumber":2,"parameterNumberName":"U-component_of_CURRENTS"},"data":[0,0,0,0,0,0,0,0,0,0,0,0,0,0,0,0,0,0,0,0,0,0,0,0,0,0,0,0,0,0,0,0,0,0,0,0,0,0,0,0,0,0,0,0,0,0,0,0,0,0,0,0,0,0,0,0,0,0,0.0104,0.0105,0,0.0188,0.0188,0.0189,0.0238,0.0238,0.0239,0.0239,0.0293,0.0294,0.0295,0,0,0,0,0,0,0,0,0,0,0,0,0,0.0012,0.0013,0.0104,0.0105,0.0106,0.0187,0.0188,0.0189,0.0238,0.0238,0.0239,0.0239,0.0293,0.0294,0.0296,0,0,0,0,0,0,0,0,0,0,0,0,0,0.0067,0.0013,0.0103,0.0142,0.0146,0.0187,0.0188,0.019,0.0238,0.0238,0.0239,0.0239,0.0293,0.0294,0.0296,0.0293,0,0,0.0301,0.0301,0,0,0,0,0,0,0,0,0.0064,0.007,0.0135,0.0139,0.0144,0.0205,0.0176,0.0224,0.0238,0.0201,0.0239,0.024,0.0262,0.0266,0.0278,0.0296,0.0298,0.0301,0.0302,0.0302,0.0303,0,0,0,0,0,0,0,0.006,0.0067,0.0134,0.0136,0.0142,0.0164,0.0172,0.0185,0.0224,0.0204,0.0208,0.0221,0.0264,0.0276,0.0279,0.0299,0.0301,0.0302,0.0303,0.0304,0.0391,0.0393,0,0,0,0,0,0,0.0052,0.0063,0.0132,0.0137,0.0107,0.0165,0.0174,0.0183,0.0225,0.0233,0.022,0.0223,0.0273,0.0277,0.0281,0.0335,0.0302,0.0304,0.0305,0.039,0.0392,0.0393,0,0,0,0,0,0,0.005,0.0057,0.0129,0.0104,0.0115,0.0166,0.0176,0.0184,0.0215,0.0239,0.0246,0.0245,0.0274,0.0279,0.0304,0.0335,0.0305,0.0306,0.0388,0.0391,0.0393,0.0406,0,0,0,0,0,0,0.0046,0.0056,0.0067,0.0103,0.0116,0.0164,0.0176,0.0186,0.0222,0.0227,0.0261,0.0266,0.0275,0.0301,0.0305,0.0337,0.0307,0.0387,0.0389,0.0392,0.0404,0.0409,0.0412,0,0,0,0,0,0.0043,0.0051,0.0067,0.0076,0.0127,0.0165,0.0174,0.021,0.0223,0.024,0.0258,0.0266,0.0321,0.0303,0.0307,0.034,0.0385,0.0389,0.0392,0.0402,0.0408,0.0412,0,0,0,0,0,0,0.002,0.0059,0.0076,0.0097,0.0135,0.0175,0.0198,0.0219,0.0248,0.0255,0.0271,0.0277,0.0311,0.0324,0.0303,0.0376,0.036,0.0364,0.0367,0.0372,0.0376,0.0357,0.0309,0,0,0,0,0,0.0019,0.004,0.0078,0.0102,0.0118,0.016,0.0183,0.0208,0.0237,0.0252,0.0278,0.0306,0.0325,0.0346,0.0363,0.0397,0.0389,0.0427,0.0431,0.0434,0.0423,0.043,0.0433,0.0403,0.0403,0.0403,0,0,0.0015,0.0045,0.0055,0.01,0.0132,0.0151,0.0176,0.0216,0.0235,0.0251,0.029,0.0315,0.0335,0.0372,0.0391,0.0389,0.0442,0.0438,0.0441,0.0428,0.0433,0.0436,0.0438,0.0405,0.0405,0.0405,0,0,0.0009,0.0047,0.0053,0.0084,0.0135,0.0163,0.0176,0.0225,0.0252,0.0289,0.0305,0.0341,0.0386,0.0404,0.0416,0.0453,0.0455,0.0481,0.0494,0.0501,0.0503,0.0504,0.0503,0.0504,0.0492,0.0492,0.0492,0,0.0002,0.0026,0.0063,0.0077,0.011,0.0165,0.0181,0.0209,0.0264,0.0286,0.0305,0.0369,0.0395,0.0422,0.0448,0.0461,0.0464,0.047,0.0504,0.0505,0.0506,0.0504,0.0505,0.0493,0.0493,0.0493,0.0493,0,-0.0012,0.0021,0.0034,0.0071,0.0102,0.014,0.018,0.0221,0.0268,0.0298,0.0348,0.0381,0.0424,0.0449,0.0463,0.0497,0.0496,0.0498,0.0483,0.0509,0.0506,0.0507,0.0495,0.0494,0.0494,0.0494,0,0,-0.0049,0.001,0.0022,0.0056,0.0113,0.0147,0.0176,0.0228,0.0264,0.0313,0.0349,0.04,0.0434,0.045,0.048,0.0496,0.0521,0.0513,0.0513,0.0498,0.0536,0.0481,0.0476,0.0534,0.0534,0.0534,0.0532,0,-0.0058,-0.0022,0.0004,0.006,0.0093,0.0149,0.0179,0.0229,0.0283,0.033,0.0361,0.0411,0.0429,0.0472,0.0484,0.0513,0.0523,0.052,0.0525,0.0524,0.0461,0.0475,0.0535,0.0532,0.0532,0.0532,0.0533,0,-0.0072,-0.0034,0.0007,0.0092,0.0109,0.0143,0.0232,0.0264,0.0318,0.0356,0.0392,0.0423,0.0459,0.0473,0.0502,0.0505,0.0522,0.0532,0.0532,0.0471,0.047,0.0502,0.0533,0.0533,0.0533,0.0533,0.0533,0,-0.0079,-0.0017,0.0031,0.0057,0.0134,0.0173,0.0222,0.0284,0.0326,0.038,0.042,0.0442,0.0484,0.0488,0.0514,0.0524,0.0525,0.054,0.0494,0.049,0.0533,0.0531,0.0546,0.0546,0.0546,0.0546,0.0546,0,-0.0073,-0.0031,0.0044,0.0075,0.0146,0.0192,0.0268,0.0312,0.0369,0.04,0.0445,0.046,0.0497,0.0502,0.0506,0.049,0.0518,0.0486,0.0483,0.0541,0.0541,0.0533,0.0532,0.0546,0.0546,0.0546,0.0546,0,-0.0081,-0.0035,0.0024,0.0111,0.0149,0.0202,0.0303,0.0342,0.0407,0.0444,0.0464,0.05,0.0494,0.05,0.0507,0.0493,0.0474,0.0461,0.0509,0.0511,0.0439,0.0439,0.0416,0.0414,0.0412,0.0411,0.041,0,-0.0081,-0.0052,0.0046,0.009,0.0139,0.0227,0.0275,0.0354,0.0375,0.0443,0.0434,0.047,0.0474,0.0441,0.0438,0.0417,0.0416,0.0419,0.0439,0.0424,0.0425,0.0427,0.0429,0.0407,0.0407,0.0406,0.0406,0,-0.009,-0.0057,-0.0013,0.0076,0.0143,0.0209,0.0275,0.0298,0.0355,0.0419,0.0421,0.0431,0.0414,0.0398,0.0389,0.0369,0.0423,0.0402,0.0406,0.0425,0.0413,0.0416,0.042,0.04,0.0401,0.0401,0.0402,0,-0.0104,-0.0086,-0.0029,0.0051,0.0128,0.017,0.0215,0.0248,0.0293,0.0361,0.0342,0.0365,0.0393,0.037,0.034,0.033,0.0337,0.0353,0.036,0.0366,0.0347,0.0325,0.0276,0,0,0,0,0,-0.0107,-0.0099,-0.0052,0.0021,0.0093,0.014,0.0198,0.0228,0.028,0.0276,0.0322,0.0299,0.0298,0.0299,0.0277,0.0287,0.0315,0.026,0.0331,0.0367,0.0374,0.0354,0,0,0,0,0,0,-0.0119,-0.0087,-0.0076,-0.0015,0.0033,0.0093,0.0131,0.016,0.0164,0.0224,0.0219,0.0283,0.0268,0.0303,0.027,0.027,0.0311,0.0278,0.0277,0.0363,0.0369,0.0375,0.0357,0,0,0,0,0]},{"header":{"parameterUnit":"m.s-1","parameterCategory":2,"la1":30.2991,"la2":30.254,"lo1":-89.0895,"lo2":-89.0444,"dy":0.0017,"dx":0.0017,"nx":28,"ny":28,"refTime":"2024-08-11T15:00:00:Z","depth":"4","parameterNumber":3,"parameterNumberName":"V-component_of_CURRENTS"},"data":[0,0,0,0,0,0,0,0,0,0,0,0,0,0,0,0,0,0,0,0,0,0,0,0,0,0,0,0,0,0,0,0,0,0,0,0,0,0,0,0,0,0,0,0,0,0,0,0,0,0,0,0,0,0,0,0,0,0,0.0251,0.0251,0,0.0246,0.0246,0.0246,0.029,0.0291,0.0292,0.0293,0.0242,0.0239,0.0237,0,0,0,0,0,0,0,0,0,0,0,0,0,0.0262,0.0262,0.0251,0.0251,0.0251,0.0246,0.0246,0.0247,0.029,0.0291,0.0293,0.0294,0.0242,0.024,0.0237,0,0,0,0,0,0,0,0,0,0,0,0,0,0.0259,0.0262,0.0251,0.0271,0.0272,0.0246,0.0246,0.0247,0.029,0.0291,0.0293,0.0294,0.0243,0.024,0.0236,0.0183,0,0,0.0226,0.0224,0,0,0,0,0,0,0,0,0.0259,0.0259,0.0268,0.0269,0.0271,0.0269,0.0231,0.0222,0.0289,0.0285,0.0293,0.0295,0.0244,0.0241,0.0239,0.0181,0.0178,0.0225,0.0223,0.0222,0.0221,0,0,0,0,0,0,0,0.0259,0.0259,0.0251,0.0268,0.0269,0.0267,0.0269,0.023,0.0256,0.0285,0.0288,0.0284,0.0245,0.0243,0.0238,0.0178,0.0225,0.0222,0.022,0.0219,0.0031,0.0029,0,0,0,0,0,0,0.0256,0.0259,0.0251,0.0251,0.0267,0.0265,0.0268,0.0269,0.0258,0.0257,0.0283,0.0286,0.0248,0.0242,0.0236,0.014,0.0222,0.0218,0.0216,0.0034,0.0031,0.0028,0,0,0,0,0,0,0.0257,0.0256,0.0252,0.0253,0.0252,0.0264,0.0265,0.0268,0.0271,0.0256,0.0256,0.0283,0.0249,0.0241,0.0192,0.014,0.0217,0.0214,0.0037,0.0033,0.0029,-0.0032,0,0,0,0,0,0,0.0257,0.0256,0.0257,0.0253,0.0252,0.0216,0.0264,0.0267,0.0265,0.027,0.0255,0.0252,0.025,0.0197,0.0188,0.0137,0.0211,0.0041,0.0036,0.003,-0.0026,-0.0037,-0.0047,0,0,0,0,0,0.0258,0.0233,0.0258,0.0256,0.0253,0.0214,0.0212,0.0227,0.0263,0.0241,0.024,0.0253,0.0156,0.0192,0.0182,0.0129,0.0044,0.0037,0.0031,-0.0021,-0.0035,-0.0047,0,0,0,0,0,0,0.0234,0.0235,0.0262,0.0241,0.0227,0.022,0.02,0.0222,0.0207,0.0216,0.0221,0.0215,0.0151,0.0142,0.0181,0.0056,0.0099,0.009,0.0062,0.0049,0.0039,0.0057,0.0208,0,0,0,0,0,0.0232,0.0217,0.0218,0.0199,0.0191,0.0202,0.0192,0.0202,0.0188,0.0186,0.0175,0.0153,0.0112,0.0088,0.0052,-0.0017,0.0011,-0.0062,-0.0072,-0.0081,-0.0076,-0.008,-0.0089,0.0006,0.0006,0.0007,0,0,0.0215,0.0216,0.0206,0.0193,0.0188,0.016,0.0199,0.0171,0.0149,0.0177,0.0134,0.0116,0.0087,0.0014,-0.0018,0.0003,-0.0096,-0.0089,-0.0096,-0.0086,-0.0088,-0.0096,-0.0104,0.0002,0.0003,0.0004,0,0,0.0171,0.0176,0.0156,0.0138,0.0126,0.0119,0.0111,0.0098,0.0095,0.0043,0.0062,0.0019,-0.0049,-0.0073,-0.0094,-0.019,-0.0148,-0.0213,-0.0257,-0.0262,-0.0268,-0.0274,-0.0244,-0.0247,-0.0223,-0.0223,-0.0223,0,0.0158,0.0155,0.0138,0.0115,0.011,0.01,0.0084,0.005,0.0023,0.0022,0.0014,-0.0058,-0.0092,-0.015,-0.0195,-0.0212,-0.019,-0.02,-0.0271,-0.0276,-0.0281,-0.0249,-0.0251,-0.0226,-0.0226,-0.0226,-0.0225,0,0.0116,0.0112,0.0086,0.0068,0.0039,0.0015,-0.0021,-0.0053,-0.0062,-0.0073,-0.013,-0.0176,-0.0203,-0.0248,-0.0259,-0.0318,-0.0282,-0.0276,-0.0227,-0.0293,-0.0257,-0.0257,-0.0232,-0.023,-0.0229,-0.0228,0,0,0.0118,0.0075,0.0076,0.0082,0.0031,0.0008,-0.0058,-0.0089,-0.0096,-0.0169,-0.0172,-0.0287,-0.028,-0.0305,-0.0324,-0.0358,-0.039,-0.0341,-0.034,-0.029,-0.0371,-0.0359,-0.0357,-0.0389,-0.039,-0.039,-0.0328,0,0.0118,0.0092,0.0063,0.0033,0.0025,-0.0013,-0.0063,-0.0107,-0.0144,-0.0172,-0.0231,-0.0259,-0.0313,-0.0315,-0.0367,-0.0371,-0.0395,-0.0405,-0.0333,-0.033,-0.0294,-0.036,-0.0393,-0.0328,-0.0328,-0.0328,-0.0328,0,0.0121,0.0111,0.0092,0.0069,0.0062,0.0024,-0.0009,-0.0053,-0.0119,-0.0141,-0.0193,-0.0221,-0.0287,-0.0316,-0.0371,-0.0369,-0.038,-0.0394,-0.0391,-0.0357,-0.0321,-0.0253,-0.0328,-0.0328,-0.0328,-0.0328,-0.0328,0,0.0174,0.0144,0.0143,0.013,0.0075,0.0062,0.0032,-0.0033,-0.0047,-0.0105,-0.0109,-0.0187,-0.0202,-0.0257,-0.0319,-0.0332,-0.0355,-0.0361,-0.0358,-0.0354,-0.0349,-0.0344,-0.0393,-0.0394,-0.0394,-0.0394,-0.0394,0,0.0195,0.0198,0.0172,0.0166,0.0166,0.0116,0.0107,0.0058,0.0022,0.0004,-0.0073,-0.01,-0.0192,-0.0226,-0.0286,-0.0323,-0.0323,-0.0369,-0.035,-0.0377,-0.0376,-0.0348,-0.0343,-0.0391,-0.0392,-0.0392,-0.0393,0,0.0217,0.0208,0.0211,0.0187,0.0183,0.0177,0.0151,0.0146,0.0108,0.0087,0.0077,-0.0011,-0.0075,-0.0149,-0.0217,-0.0258,-0.0302,-0.0309,-0.0308,-0.0288,-0.0298,-0.0298,-0.029,-0.029,-0.0289,-0.0289,-0.0288,0,0.0209,0.0221,0.0229,0.0235,0.0218,0.0216,0.0212,0.0182,0.0172,0.0124,0.0116,0.0061,-0.0012,-0.0085,-0.0177,-0.0248,-0.0276,-0.0261,-0.0329,-0.0311,-0.0293,-0.0294,-0.0295,-0.0287,-0.0287,-0.0287,-0.0287,0,0.0199,0.0219,0.022,0.0248,0.0256,0.0262,0.0255,0.0253,0.0214,0.021,0.0144,0.0077,0.0014,-0.0089,-0.0131,-0.02,-0.0258,-0.0256,-0.0259,-0.0322,-0.0307,-0.029,-0.0292,-0.0285,-0.0285,-0.0286,-0.0286,0,0.0196,0.0202,0.0229,0.0245,0.0273,0.0277,0.0272,0.0254,0.0247,0.0193,0.0172,0.0078,0.003,-0.0062,-0.0117,-0.0168,-0.0197,-0.0207,-0.0212,-0.0215,-0.0235,-0.0207,-0.0143,0,0,0,0,0,0.0186,0.0199,0.022,0.0239,0.0274,0.0287,0.0285,0.0278,0.0256,0.0219,0.0193,0.0118,0.0013,-0.0044,-0.0094,-0.0118,-0.0204,-0.0176,-0.0218,-0.0275,-0.0277,-0.0316,0,0,0,0,0,0,0.018,0.0203,0.0215,0.0241,0.0256,0.0286,0.0282,0.0265,0.0234,0.0204,0.014,0.0129,0.0018,0.0046,-0.0088,-0.0105,-0.0133,-0.0222,-0.0222,-0.0273,-0.0275,-0.0277,-0.0318,0,0,0,0,0]}]]